Time,TemperatureF,DewpointF,PressureIn,WindDirection,WindDirectionDegrees,WindSpeedMPH,WindSpeedGustMPH,Humidity,HourlyPrecipIn,Conditions,Clouds,dailyrainin,SoftwareType,DateUTC
2013-03-13 00:03:00,60.7,39.8,29.96,ENE,76,0.0,1.0,46,0.00,,,0.00,VWS V13.01,2013-03-13 07:03:00,
2013-03-13 00:08:00,60.7,38.7,29.96,ENE,76,0.0,0.0,44,0.00,,,0.00,VWS V13.01,2013-03-13 07:08:00,
2013-03-13 00:13:00,61.0,38.4,29.96,ENE,76,0.0,0.0,43,0.00,,,0.00,VWS V13.01,2013-03-13 07:13:00,
2013-03-13 00:18:00,61.3,38.6,29.96,ENE,76,0.0,0.0,43,0.00,,,0.00,VWS V13.01,2013-03-13 07:18:00,
2013-03-13 00:23:00,61.2,39.1,29.96,ENE,76,0.0,1.0,44,0.00,,,0.00,VWS V13.01,2013-03-13 07:23:00,
2013-03-13 00:28:00,61.3,39.2,29.96,ENE,76,0.0,1.0,44,0.00,,,0.00,VWS V13.01,2013-03-13 07:28:00,
2013-03-13 00:33:00,61.3,38.6,29.96,ENE,76,0.0,1.0,43,0.00,,,0.00,VWS V13.01,2013-03-13 07:33:00,
2013-03-13 00:38:00,61.3,38.6,29.96,ENE,76,0.0,0.0,43,0.00,,,0.00,VWS V13.01,2013-03-13 07:38:00,
2013-03-13 00:43:00,61.4,38.7,29.95,ENE,76,0.0,0.0,43,0.00,,,0.00,VWS V13.01,2013-03-13 07:43:00,
2013-03-13 00:48:00,61.3,39.2,29.95,ENE,76,0.0,1.0,44,0.00,,,0.00,VWS V13.01,2013-03-13 07:48:00,
2013-03-13 00:53:00,61.4,39.3,29.95,ENE,76,0.0,1.0,44,0.00,,,0.00,VWS V13.01,2013-03-13 07:53:00,
2013-03-13 00:58:00,61.3,39.8,29.95,ENE,76,0.0,1.0,45,0.00,,,0.00,VWS V13.01,2013-03-13 07:58:00,
2013-03-13 01:03:00,61.1,39.0,29.95,ENE,76,0.0,1.0,44,0.00,,,0.00,VWS V13.01,2013-03-13 08:03:00,
2013-03-13 01:08:00,61.1,39.0,29.95,ENE,76,0.0,0.0,44,0.00,,,0.00,VWS V13.01,2013-03-13 08:08:00,
2013-03-13 01:13:00,61.3,39.2,29.95,ENE,76,0.0,1.0,44,0.00,,,0.00,VWS V13.01,2013-03-13 08:13:00,
2013-03-13 01:18:00,61.3,39.8,29.95,ENE,76,0.0,1.0,45,0.00,,,0.00,VWS V13.01,2013-03-13 08:18:00,
2013-03-13 01:23:00,61.0,39.5,29.95,ENE,76,0.0,1.0,45,0.00,,,0.00,VWS V13.01,2013-03-13 08:23:00,
2013-03-13 01:29:00,60.7,39.3,29.95,ENE,78,0.0,1.0,45,0.00,,,0.00,VWS V13.01,2013-03-13 08:29:00,
2013-03-13 01:34:00,60.6,38.6,29.95,ENE,78,0.0,1.0,44,0.00,,,0.00,VWS V13.01,2013-03-13 08:34:00,
2013-03-13 01:39:00,60.7,38.7,29.95,ENE,78,0.0,0.0,44,0.00,,,0.00,VWS V13.01,2013-03-13 08:39:00,
2013-03-13 01:44:00,61.0,39.0,29.95,ENE,78,0.0,1.0,44,0.00,,,0.00,VWS V13.01,2013-03-13 08:44:00,
2013-03-13 01:49:00,61.0,39.0,29.95,ENE,78,0.0,1.0,44,0.00,,,0.00,VWS V13.01,2013-03-13 08:49:00,
2013-03-13 01:54:00,60.8,38.8,29.95,ENE,78,0.0,1.0,44,0.00,,,0.00,VWS V13.01,2013-03-13 08:54:00,
2013-03-13 01:59:00,60.6,39.2,29.95,ENE,75,0.0,2.0,45,0.00,,,0.00,VWS V13.01,2013-03-13 08:59:00,
2013-03-13 02:04:00,60.5,38.5,29.95,ENE,73,0.0,2.0,44,0.00,,,0.00,VWS V13.01,2013-03-13 09:04:00,
2013-03-13 02:09:00,60.4,38.4,29.94,ENE,73,0.0,0.0,44,0.00,,,0.00,VWS V13.01,2013-03-13 09:09:00,
2013-03-13 02:14:00,60.4,38.4,29.94,ENE,73,0.0,0.0,44,0.00,,,0.00,VWS V13.01,2013-03-13 09:14:00,
2013-03-13 02:19:00,60.5,37.9,29.94,ENE,73,0.0,0.0,43,0.00,,,0.00,VWS V13.01,2013-03-13 09:19:00,
2013-03-13 02:24:00,60.9,37.7,29.94,ENE,73,1.0,1.0,42,0.00,,,0.00,VWS V13.01,2013-03-13 09:24:00,
2013-03-13 02:29:00,60.8,39.3,29.93,ENE,73,0.0,3.0,45,0.00,,,0.00,VWS V13.01,2013-03-13 09:29:00,
2013-03-13 02:34:00,60.6,38.0,29.93,ENE,73,0.0,3.0,43,0.00,,,0.00,VWS V13.01,2013-03-13 09:34:00,
2013-03-13 02:39:00,60.8,38.2,29.93,ENE,73,1.0,2.0,43,0.00,,,0.00,VWS V13.01,2013-03-13 09:39:00,
2013-03-13 02:44:00,60.8,37.6,29.93,ENE,73,0.0,2.0,42,0.00,,,0.00,VWS V13.01,2013-03-13 09:44:00,
2013-03-13 02:49:00,61.1,37.9,29.93,ENE,73,1.0,2.0,42,0.00,,,0.00,VWS V13.01,2013-03-13 09:49:00,
2013-03-13 02:54:00,61.1,37.9,29.93,ENE,73,0.0,2.0,42,0.00,,,0.00,VWS V13.01,2013-03-13 09:54:00,
2013-03-13 02:59:00,60.9,37.1,29.93,ENE,73,1.0,2.0,41,0.00,,,0.00,VWS V13.01,2013-03-13 09:59:00,
2013-03-13 03:04:00,61.0,37.8,29.92,ENE,73,0.0,2.0,42,0.00,,,0.00,VWS V13.01,2013-03-13 10:04:00,
2013-03-13 03:09:00,61.1,37.9,29.92,ENE,73,0.0,0.0,42,0.00,,,0.00,VWS V13.01,2013-03-13 10:09:00,
2013-03-13 03:14:00,61.1,37.2,29.93,ENE,73,0.0,1.0,41,0.00,,,0.00,VWS V13.01,2013-03-13 10:14:00,
2013-03-13 03:19:00,61.0,37.8,29.92,ENE,73,0.0,2.0,42,0.00,,,0.00,VWS V13.01,2013-03-13 10:19:00,
2013-03-13 03:24:00,60.8,37.6,29.92,ENE,77,0.0,2.0,42,0.00,,,0.00,VWS V13.01,2013-03-13 10:24:00,
2013-03-13 03:29:00,60.7,37.5,29.92,ENE,77,1.0,2.0,42,0.00,,,0.00,VWS V13.01,2013-03-13 10:29:00,
2013-03-13 03:34:00,60.6,37.4,29.92,ENE,78,0.0,2.0,42,0.00,,,0.00,VWS V13.01,2013-03-13 10:34:00,
2013-03-13 03:39:00,60.5,36.7,29.92,ENE,78,0.0,0.0,41,0.00,,,0.00,VWS V13.01,2013-03-13 10:39:00,
2013-03-13 03:44:00,60.4,37.2,29.92,ENE,68,0.0,2.0,42,0.00,,,0.00,VWS V13.01,2013-03-13 10:44:00,
2013-03-13 03:49:00,60.3,36.5,29.92,ENE,70,0.0,2.0,41,0.00,,,0.00,VWS V13.01,2013-03-13 10:49:00,
2013-03-13 03:54:00,60.8,37.6,29.92,ENE,76,0.0,3.0,42,0.00,,,0.00,VWS V13.01,2013-03-13 10:54:00,
2013-03-13 03:59:00,60.6,36.8,29.92,East,80,0.0,3.0,41,0.00,,,0.00,VWS V13.01,2013-03-13 10:59:00,
2013-03-13 04:04:00,60.5,36.7,29.92,ENE,78,0.0,3.0,41,0.00,,,0.00,VWS V13.01,2013-03-13 11:04:00,
2013-03-13 04:09:00,60.4,36.6,29.92,ENE,78,0.0,1.0,41,0.00,,,0.00,VWS V13.01,2013-03-13 11:09:00,
2013-03-13 04:14:00,60.8,37.0,29.92,ENE,75,2.0,2.0,41,0.00,,,0.00,VWS V13.01,2013-03-13 11:14:00,
2013-03-13 04:19:00,60.7,36.9,29.92,ENE,75,0.0,2.0,41,0.00,,,0.00,VWS V13.01,2013-03-13 11:19:00,
2013-03-13 04:24:00,60.5,37.3,29.92,East,81,0.0,2.0,42,0.00,,,0.00,VWS V13.01,2013-03-13 11:24:00,
2013-03-13 04:29:00,60.2,37.0,29.92,East,81,0.0,2.0,42,0.00,,,0.00,VWS V13.01,2013-03-13 11:29:00,
2013-03-13 04:34:00,60.2,37.0,29.92,ENE,75,0.0,3.0,42,0.00,,,0.00,VWS V13.01,2013-03-13 11:34:00,
2013-03-13 04:39:00,60.2,37.6,29.92,ENE,76,0.0,1.0,43,0.00,,,0.00,VWS V13.01,2013-03-13 11:39:00,
2013-03-13 04:44:00,60.0,36.2,29.92,ENE,76,0.0,1.0,41,0.00,,,0.00,VWS V13.01,2013-03-13 11:44:00,
2013-03-13 04:49:00,60.0,36.2,29.92,ENE,76,1.0,1.0,41,0.00,,,0.00,VWS V13.01,2013-03-13 11:49:00,
2013-03-13 04:54:00,60.3,36.5,29.92,ENE,76,0.0,2.0,41,0.00,,,0.00,VWS V13.01,2013-03-13 11:54:00,
2013-03-13 04:59:00,60.3,37.7,29.93,ENE,69,0.0,4.0,43,0.00,,,0.00,VWS V13.01,2013-03-13 11:59:00,
2013-03-13 05:04:00,59.9,36.8,29.92,ENE,69,0.0,4.0,42,0.00,,,0.00,VWS V13.01,2013-03-13 12:04:00,
2013-03-13 05:09:00,60.0,36.2,29.92,ENE,69,0.0,0.0,41,0.00,,,0.00,VWS V13.01,2013-03-13 12:09:00,
2013-03-13 05:14:00,60.2,36.4,29.93,ENE,60,0.0,3.0,41,0.00,,,0.00,VWS V13.01,2013-03-13 12:14:00,
2013-03-13 05:19:00,60.3,36.5,29.92,ENE,67,0.0,3.0,41,0.00,,,0.00,VWS V13.01,2013-03-13 12:19:00,
2013-03-13 05:24:00,60.7,36.3,29.93,ENE,63,3.0,3.0,40,0.00,,,0.00,VWS V13.01,2013-03-13 12:24:00,
2013-03-13 05:29:00,61.0,35.9,29.93,ENE,71,0.0,3.0,39,0.00,,,0.00,VWS V13.01,2013-03-13 12:29:00,
2013-03-13 05:34:00,61.3,35.5,29.92,ENE,69,1.0,3.0,38,0.00,,,0.00,VWS V13.01,2013-03-13 12:34:00,
2013-03-13 05:39:00,61.7,35.9,29.92,East,88,0.0,2.0,38,0.00,,,0.00,VWS V13.01,2013-03-13 12:39:00,
2013-03-13 05:44:00,62.0,35.5,29.92,ENE,65,0.0,3.0,37,0.00,,,0.00,VWS V13.01,2013-03-13 12:44:00,
2013-03-13 05:49:00,62.1,35.5,29.92,East,80,0.0,3.0,37,0.00,,,0.00,VWS V13.01,2013-03-13 12:49:00,
2013-03-13 05:54:00,62.0,35.5,29.92,East,80,1.0,3.0,37,0.00,,,0.00,VWS V13.01,2013-03-13 12:54:00,
2013-03-13 05:59:00,62.0,35.5,29.92,ENE,76,1.0,3.0,37,0.00,,,0.00,VWS V13.01,2013-03-13 12:59:00,
2013-03-13 06:04:00,62.2,34.9,29.93,ENE,71,0.0,3.0,36,0.00,,,0.00,VWS V13.01,2013-03-13 13:04:00,
2013-03-13 06:09:00,62.5,35.9,29.93,ENE,73,0.0,0.0,37,0.00,,,0.00,VWS V13.01,2013-03-13 13:09:00,
2013-03-13 06:14:00,62.5,35.2,29.92,ENE,70,2.0,4.0,36,0.00,,,0.00,VWS V13.01,2013-03-13 13:14:00,
2013-03-13 06:19:00,62.7,34.7,29.92,ENE,74,1.0,4.0,35,0.00,,,0.00,VWS V13.01,2013-03-13 13:19:00,
2013-03-13 06:24:00,63.0,34.2,29.92,ENE,74,0.0,4.0,34,0.00,,,0.00,VWS V13.01,2013-03-13 13:24:00,
2013-03-13 06:29:00,63.2,35.1,29.93,ENE,75,0.0,4.0,35,0.00,,,0.00,VWS V13.01,2013-03-13 13:29:00,
2013-03-13 06:34:00,63.2,34.4,29.93,ENE,75,0.0,4.0,34,0.00,,,0.00,VWS V13.01,2013-03-13 13:34:00,
2013-03-13 06:39:00,63.3,34.5,29.93,ENE,75,0.0,0.0,34,0.00,,,0.00,VWS V13.01,2013-03-13 13:39:00,
2013-03-13 06:44:00,63.5,33.9,29.93,ENE,75,0.0,1.0,33,0.00,,,0.00,VWS V13.01,2013-03-13 13:44:00,
2013-03-13 06:49:00,63.7,34.8,29.93,ENE,75,0.0,1.0,34,0.00,,,0.00,VWS V13.01,2013-03-13 13:49:00,
2013-03-13 06:54:00,63.5,34.7,29.93,ENE,75,0.0,1.0,34,0.00,,,0.00,VWS V13.01,2013-03-13 13:54:00,
2013-03-13 06:59:00,63.3,34.5,29.93,ENE,75,0.0,1.0,34,0.00,,,0.00,VWS V13.01,2013-03-13 13:59:00,
2013-03-13 07:04:00,63.1,33.6,29.93,ENE,75,0.0,1.0,33,0.00,,,0.00,VWS V13.01,2013-03-13 14:04:00,
2013-03-13 07:09:00,63.3,34.5,29.93,ENE,75,0.0,0.0,34,0.00,,,0.00,VWS V13.01,2013-03-13 14:09:00,
2013-03-13 07:14:00,63.2,34.4,29.94,ENE,75,0.0,1.0,34,0.00,,,0.00,VWS V13.01,2013-03-13 14:14:00,
2013-03-13 07:19:00,63.1,35.0,29.93,ENE,58,5.0,5.0,35,0.00,,,0.00,VWS V13.01,2013-03-13 14:19:00,
2013-03-13 07:24:00,62.1,35.5,29.93,ENE,59,0.0,5.0,37,0.00,,,0.00,VWS V13.01,2013-03-13 14:24:00,
2013-03-13 07:29:00,61.9,34.7,29.93,ENE,59,0.0,5.0,36,0.00,,,0.00,VWS V13.01,2013-03-13 14:29:00,
2013-03-13 07:34:00,62.2,35.6,29.93,ENE,59,1.0,5.0,37,0.00,,,0.00,VWS V13.01,2013-03-13 14:34:00,
2013-03-13 07:39:00,63.2,34.4,29.93,ENE,74,2.0,2.0,34,0.00,,,0.00,VWS V13.01,2013-03-13 14:39:00,
2013-03-13 07:44:00,64.1,34.4,29.94,ENE,67,0.0,3.0,33,0.00,,,0.00,VWS V13.01,2013-03-13 14:44:00,
2013-03-13 07:49:00,64.3,35.4,29.94,ENE,67,0.0,3.0,34,0.00,,,0.00,VWS V13.01,2013-03-13 14:49:00,
2013-03-13 07:54:00,64.5,35.5,29.94,ENE,65,1.0,3.0,34,0.00,,,0.00,VWS V13.01,2013-03-13 14:54:00,
2013-03-13 07:59:00,64.5,36.3,29.94,ENE,65,0.0,3.0,35,0.00,,,0.00,VWS V13.01,2013-03-13 14:59:00,
2013-03-13 08:04:00,64.7,36.4,29.94,ENE,69,0.0,3.0,35,0.00,,,0.00,VWS V13.01,2013-03-13 15:04:00,
2013-03-13 08:09:00,64.9,37.3,29.94,ENE,69,0.0,0.0,36,0.00,,,0.00,VWS V13.01,2013-03-13 15:09:00,
2013-03-13 08:14:00,64.9,37.3,29.95,East,80,0.0,1.0,36,0.00,,,0.00,VWS V13.01,2013-03-13 15:14:00,
2013-03-13 08:19:00,64.9,38.0,29.95,East,80,0.0,1.0,37,0.00,,,0.00,VWS V13.01,2013-03-13 15:19:00,
2013-03-13 08:24:00,65.1,38.2,29.95,ENE,69,0.0,2.0,37,0.00,,,0.00,VWS V13.01,2013-03-13 15:24:00,
2013-03-13 08:29:00,65.4,41.1,29.95,ENE,69,0.0,2.0,41,0.00,,,0.00,VWS V13.01,2013-03-13 15:29:00,
2013-03-13 08:34:00,65.3,41.0,29.95,ENE,69,0.0,2.0,41,0.00,,,0.00,VWS V13.01,2013-03-13 15:34:00,
2013-03-13 08:39:00,65.4,44.1,29.95,NE,55,0.0,1.0,46,0.00,,,0.00,VWS V13.01,2013-03-13 15:39:00,
2013-03-13 08:44:00,65.3,42.2,29.96,NE,55,0.0,2.0,43,0.00,,,0.00,VWS V13.01,2013-03-13 15:44:00,
2013-03-13 08:49:00,65.4,42.9,29.96,NE,55,0.0,2.0,44,0.00,,,0.00,VWS V13.01,2013-03-13 15:49:00,
2013-03-13 08:54:00,65.7,44.4,29.96,NE,55,0.0,2.0,46,0.00,,,0.00,VWS V13.01,2013-03-13 15:54:00,
2013-03-13 09:00:00,66.3,44.3,29.96,NE,55,0.0,2.0,45,0.00,,,0.00,VWS V13.01,2013-03-13 16:00:00,
2013-03-13 09:05:00,66.6,43.4,29.96,NE,55,0.0,2.0,43,0.00,,,0.00,VWS V13.01,2013-03-13 16:05:00,
2013-03-13 09:10:00,67.0,45.6,29.96,NE,54,0.0,1.0,46,0.00,,,0.00,VWS V13.01,2013-03-13 16:10:00,
2013-03-13 09:15:00,67.2,44.0,29.97,NE,54,0.0,1.0,43,0.00,,,0.00,VWS V13.01,2013-03-13 16:15:00,
2013-03-13 09:20:00,67.6,44.3,29.97,NE,47,0.0,1.0,43,0.00,,,0.00,VWS V13.01,2013-03-13 16:20:00,
2013-03-13 09:25:00,68.0,45.3,29.97,NE,42,0.0,2.0,44,0.00,,,0.00,VWS V13.01,2013-03-13 16:25:00,
2013-03-13 09:30:00,68.2,45.5,29.97,NNE,18,1.0,2.0,44,0.00,,,0.00,VWS V13.01,2013-03-13 16:30:00,
2013-03-13 09:35:00,68.4,46.8,29.97,West,267,0.0,2.0,46,0.00,,,0.00,VWS V13.01,2013-03-13 16:35:00,
2013-03-13 09:40:00,68.5,45.8,29.97,West,267,0.0,0.0,44,0.00,,,0.00,VWS V13.01,2013-03-13 16:40:00,
2013-03-13 09:45:00,68.7,45.3,29.97,West,267,0.0,0.0,43,0.00,,,0.00,VWS V13.01,2013-03-13 16:45:00,
2013-03-13 09:50:00,69.1,45.1,29.97,WNW,286,0.0,2.0,42,0.00,,,0.00,VWS V13.01,2013-03-13 16:50:00,
2013-03-13 09:55:00,69.9,45.8,29.97,WNW,286,1.0,2.0,42,0.00,,,0.00,VWS V13.01,2013-03-13 16:55:00,
2013-03-13 10:00:00,70.7,45.9,29.97,WNW,286,0.0,2.0,41,0.00,,,0.00,VWS V13.01,2013-03-13 17:00:00,
2013-03-13 10:05:00,71.3,45.1,29.97,WNW,286,0.0,2.0,39,0.00,,,0.00,VWS V13.01,2013-03-13 17:05:00,
2013-03-13 10:10:00,72.1,45.8,29.97,WNW,286,1.0,1.0,39,0.00,,,0.00,VWS V13.01,2013-03-13 17:10:00,
2013-03-13 10:15:00,73.0,45.2,29.97,WNW,286,0.0,1.0,37,0.00,,,0.00,VWS V13.01,2013-03-13 17:15:00,
2013-03-13 10:20:00,73.9,46.0,29.97,WNW,286,0.0,1.0,37,0.00,,,0.00,VWS V13.01,2013-03-13 17:20:00,
2013-03-13 10:25:00,74.7,46.0,29.97,WNW,286,1.0,2.0,36,0.00,,,0.00,VWS V13.01,2013-03-13 17:25:00,
2013-03-13 10:30:00,75.4,48.0,29.97,WNW,299,1.0,3.0,38,0.00,,,0.00,VWS V13.01,2013-03-13 17:30:00,
2013-03-13 10:35:00,75.7,47.6,29.97,West,279,1.0,3.0,37,0.00,,,0.00,VWS V13.01,2013-03-13 17:35:00,
2013-03-13 10:40:00,75.8,47.0,29.97,WNW,302,0.0,3.0,36,0.00,,,0.00,VWS V13.01,2013-03-13 17:40:00,
2013-03-13 10:45:00,76.1,48.0,29.97,WSW,256,0.0,3.0,37,0.00,,,0.00,VWS V13.01,2013-03-13 17:45:00,
2013-03-13 10:50:00,76.5,49.0,29.97,WNW,288,2.0,3.0,38,0.00,,,0.00,VWS V13.01,2013-03-13 17:50:00,
2013-03-13 10:55:00,76.6,49.1,29.97,WNW,291,0.0,4.0,38,0.00,,,0.00,VWS V13.01,2013-03-13 17:55:00,
2013-03-13 11:00:00,76.6,49.8,29.97,WNW,286,0.0,5.0,39,0.00,,,0.00,VWS V13.01,2013-03-13 18:00:00,
2013-03-13 11:05:00,76.8,50.0,29.97,SW,225,1.0,5.0,39,0.00,,,0.00,VWS V13.01,2013-03-13 18:05:00,
2013-03-13 11:10:00,77.0,50.2,29.97,SW,234,0.0,4.0,39,0.00,,,0.00,VWS V13.01,2013-03-13 18:10:00,
2013-03-13 11:15:00,77.1,48.8,29.97,WNW,292,2.0,4.0,37,0.00,,,0.00,VWS V13.01,2013-03-13 18:15:00,
2013-03-13 11:20:00,77.3,49.0,29.97,West,269,1.0,4.0,37,0.00,,,0.00,VWS V13.01,2013-03-13 18:20:00,
2013-03-13 11:25:00,77.5,48.5,29.97,West,275,0.0,4.0,36,0.00,,,0.00,VWS V13.01,2013-03-13 18:25:00,
2013-03-13 11:30:00,77.5,48.5,29.97,SW,232,0.0,5.0,36,0.00,,,0.00,VWS V13.01,2013-03-13 18:30:00,
2013-03-13 11:35:00,77.8,50.2,29.97,WNW,297,2.0,5.0,38,0.00,,,0.00,VWS V13.01,2013-03-13 18:35:00,
2013-03-13 11:40:00,78.3,47.7,29.97,WSW,245,1.0,3.0,34,0.00,,,0.00,VWS V13.01,2013-03-13 18:40:00,
2013-03-13 11:45:00,78.6,47.1,29.97,WNW,293,3.0,4.0,33,0.00,,,0.00,VWS V13.01,2013-03-13 18:45:00,
2013-03-13 11:50:00,78.6,47.9,29.97,WSW,254,1.0,5.0,34,0.00,,,0.00,VWS V13.01,2013-03-13 18:50:00,
2013-03-13 11:55:00,78.9,48.2,29.97,West,266,2.0,5.0,34,0.00,,,0.00,VWS V13.01,2013-03-13 18:55:00,
2013-03-13 12:00:00,79.1,48.3,29.97,West,281,1.0,5.0,34,0.00,,,0.00,VWS V13.01,2013-03-13 19:00:00,
2013-03-13 12:05:00,79.6,48.0,29.97,NW,304,0.0,5.0,33,0.00,,,0.00,VWS V13.01,2013-03-13 19:05:00,
2013-03-13 12:10:00,80.3,46.9,29.97,WNW,295,2.0,2.0,31,0.00,,,0.00,VWS V13.01,2013-03-13 19:10:00,
2013-03-13 12:15:00,80.7,48.1,29.97,SW,236,0.0,3.0,32,0.00,,,0.00,VWS V13.01,2013-03-13 19:15:00,
2013-03-13 12:20:00,81.1,48.5,29.97,WNW,284,1.0,5.0,32,0.00,,,0.00,VWS V13.01,2013-03-13 19:20:00,
2013-03-13 12:25:00,81.4,48.7,29.97,WNW,292,4.0,5.0,32,0.00,,,0.00,VWS V13.01,2013-03-13 19:25:00,
2013-03-13 12:30:00,81.6,47.2,29.97,NW,313,4.0,5.0,30,0.00,,,0.00,VWS V13.01,2013-03-13 19:30:00,
2013-03-13 12:35:00,81.9,47.5,29.97,WNW,288,1.0,5.0,30,0.00,,,0.00,VWS V13.01,2013-03-13 19:35:00,
2013-03-13 12:40:00,82.3,48.7,29.96,West,272,4.0,5.0,31,0.00,,,0.00,VWS V13.01,2013-03-13 19:40:00,
2013-03-13 12:45:00,82.4,47.9,29.96,WNW,288,2.0,5.0,30,0.00,,,0.00,VWS V13.01,2013-03-13 19:45:00,
2013-03-13 12:50:00,82.5,48.0,29.96,West,272,2.0,5.0,30,0.00,,,0.00,VWS V13.01,2013-03-13 19:50:00,
2013-03-13 12:55:00,82.8,47.3,29.96,South,182,0.0,5.0,29,0.00,,,0.00,VWS V13.01,2013-03-13 19:55:00,
2013-03-13 13:00:00,83.0,46.6,29.96,WSW,252,0.0,5.0,28,0.00,,,0.00,VWS V13.01,2013-03-13 20:00:00,
2013-03-13 13:05:00,83.6,49.8,29.95,SW,226,1.0,5.0,31,0.00,,FEW010,0.00,VWS V13.01,2013-03-13 20:05:00,
2013-03-13 13:10:00,83.7,46.2,29.95,West,261,1.0,5.0,27,0.00,,FEW010,0.00,VWS V13.01,2013-03-13 20:10:00,
2013-03-13 13:15:00,84.1,47.5,29.95,NW,308,4.0,5.0,28,0.00,,FEW010,0.00,VWS V13.01,2013-03-13 20:15:00,
2013-03-13 13:20:00,84.1,45.5,29.95,SW,236,1.0,5.0,26,0.00,,FEW010,0.00,VWS V13.01,2013-03-13 20:20:00,
2013-03-13 13:25:00,84.4,41.4,29.94,NW,313,0.0,5.0,22,0.00,,FEW010,0.00,VWS V13.01,2013-03-13 20:25:00,
2013-03-13 13:30:00,85.0,41.9,29.94,West,270,2.0,5.0,22,0.00,,FEW010,0.00,VWS V13.01,2013-03-13 20:30:00,
2013-03-13 13:35:00,85.2,44.4,29.94,West,271,2.0,6.0,24,0.00,,FEW010,0.00,VWS V13.01,2013-03-13 20:35:00,
2013-03-13 13:40:00,85.5,45.7,29.94,West,281,0.0,2.0,25,0.00,,FEW010,0.00,VWS V13.01,2013-03-13 20:40:00,
2013-03-13 13:45:00,86.2,41.7,29.93,WNW,294,1.0,3.0,21,0.00,,FEW010,0.00,VWS V13.01,2013-03-13 20:45:00,
2013-03-13 13:50:00,86.4,40.6,29.93,ENE,66,0.0,4.0,20,0.00,,FEW010,0.00,VWS V13.01,2013-03-13 20:50:00,
2013-03-13 13:55:00,86.6,42.1,29.93,WNW,293,0.0,5.0,21,0.00,,FEW010,0.00,VWS V13.01,2013-03-13 20:55:00,
2013-03-13 14:00:00,86.7,42.1,29.93,West,267,0.0,5.0,21,0.00,,FEW010,0.00,VWS V13.01,2013-03-13 21:00:00,
2013-03-13 14:05:00,86.4,39.3,29.93,WSW,249,2.0,5.0,19,0.00,,CLR,0.00,VWS V13.01,2013-03-13 21:05:00,
2013-03-13 14:10:00,86.1,40.4,29.93,WNW,287,0.0,3.0,20,0.00,,CLR,0.00,VWS V13.01,2013-03-13 21:10:00,
2013-03-13 14:15:00,86.4,39.3,29.92,WNW,290,2.0,4.0,19,0.00,,CLR,0.00,VWS V13.01,2013-03-13 21:15:00,
2013-03-13 14:20:00,86.4,39.3,29.92,WSW,254,3.0,5.0,19,0.00,,CLR,0.00,VWS V13.01,2013-03-13 21:20:00,
2013-03-13 14:25:00,86.6,40.8,29.92,West,277,1.0,5.0,20,0.00,,CLR,0.00,VWS V13.01,2013-03-13 21:25:00,
2013-03-13 14:30:00,86.8,39.6,29.92,West,281,0.0,6.0,19,0.00,,CLR,0.00,VWS V13.01,2013-03-13 21:30:00,
2013-03-13 14:35:00,86.7,38.2,29.92,West,270,1.0,6.0,18,0.00,,CLR,0.00,VWS V13.01,2013-03-13 21:35:00,
2013-03-13 14:40:00,86.8,39.6,29.92,WNW,285,1.0,1.0,19,0.00,,CLR,0.00,VWS V13.01,2013-03-13 21:40:00,
2013-03-13 14:45:00,86.9,41.0,29.92,West,265,0.0,5.0,20,0.00,,CLR,0.00,VWS V13.01,2013-03-13 21:45:00,
2013-03-13 14:50:00,87.2,38.6,29.91,West,262,2.0,5.0,18,0.00,,CLR,0.00,VWS V13.01,2013-03-13 21:50:00,
2013-03-13 14:55:00,87.1,39.9,29.92,South,188,0.0,5.0,19,0.00,,CLR,0.00,VWS V13.01,2013-03-13 21:55:00,
2013-03-13 15:00:00,87.1,37.0,29.91,SW,223,0.0,5.0,17,0.00,,CLR,0.00,VWS V13.01,2013-03-13 22:00:00,
2013-03-13 15:05:00,87.1,37.0,29.91,West,272,1.0,5.0,17,0.00,,CLR,0.00,VWS V13.01,2013-03-13 22:05:00,
2013-03-13 15:10:00,87.1,37.0,29.91,WNW,287,2.0,6.0,17,0.00,,CLR,0.00,VWS V13.01,2013-03-13 22:10:00,
2013-03-13 15:15:00,86.8,38.3,29.91,WSW,237,0.0,6.0,18,0.00,,CLR,0.00,VWS V13.01,2013-03-13 22:15:00,
2013-03-13 15:21:00,86.9,38.3,29.91,WNW,286,1.0,6.0,18,0.00,,CLR,0.00,VWS V13.01,2013-03-13 22:21:00,
2013-03-13 15:26:00,86.9,38.3,29.91,WSW,248,1.0,6.0,18,0.00,,CLR,0.00,VWS V13.01,2013-03-13 22:26:00,
2013-03-13 15:31:00,87.1,39.9,29.91,WNW,287,3.0,6.0,19,0.00,,CLR,0.00,VWS V13.01,2013-03-13 22:31:00,
2013-03-13 15:36:00,87.3,40.0,29.91,WNW,292,0.0,6.0,19,0.00,,CLR,0.00,VWS V13.01,2013-03-13 22:36:00,
2013-03-13 15:41:00,87.3,41.4,29.91,West,269,2.0,4.0,20,0.00,,CLR,0.00,VWS V13.01,2013-03-13 22:41:00,
2013-03-13 15:46:00,87.1,39.9,29.91,West,271,1.0,5.0,19,0.00,,CLR,0.00,VWS V13.01,2013-03-13 22:46:00,
2013-03-13 15:51:00,86.9,39.7,29.91,South,190,5.0,5.0,19,0.00,,CLR,0.00,VWS V13.01,2013-03-13 22:51:00,
2013-03-13 15:56:00,86.9,39.7,29.91,WNW,302,2.0,5.0,19,0.00,,CLR,0.00,VWS V13.01,2013-03-13 22:56:00,
2013-03-13 16:01:00,87.2,40.0,29.90,WNW,288,1.0,5.0,19,0.00,,CLR,0.00,VWS V13.01,2013-03-13 23:01:00,
2013-03-13 16:06:00,87.2,40.0,29.90,SW,230,0.0,5.0,19,0.00,,CLR,0.00,VWS V13.01,2013-03-13 23:06:00,
2013-03-13 16:11:00,87.1,39.9,29.90,WNW,290,2.0,3.0,19,0.00,,CLR,0.00,VWS V13.01,2013-03-13 23:11:00,
2013-03-13 16:16:00,87.2,40.0,29.90,West,269,1.0,4.0,19,0.00,,CLR,0.00,VWS V13.01,2013-03-13 23:16:00,
2013-03-13 16:26:00,87.2,41.3,29.90,WNW,286,0.0,4.0,20,0.00,,CLR,0.00,VWS V13.01,2013-03-13 23:26:00,
2013-03-13 16:36:00,86.9,39.7,29.90,NW,311,0.0,6.0,19,0.00,,CLR,0.00,VWS V13.01,2013-03-13 23:36:00,
2013-03-13 16:42:00,86.8,41.0,29.89,NW,309,0.0,5.0,20,0.00,,CLR,0.00,VWS V13.01,2013-03-13 23:42:00,
2013-03-13 16:47:00,86.8,43.4,29.89,WNW,294,0.0,5.0,22,0.00,,CLR,0.00,VWS V13.01,2013-03-13 23:47:00,
2013-03-13 16:52:00,86.6,42.1,29.89,WNW,297,2.0,5.0,21,0.00,,CLR,0.00,VWS V13.01,2013-03-13 23:52:00,
2013-03-13 16:57:00,86.5,42.0,29.89,WSW,244,0.0,5.0,21,0.00,,CLR,0.00,VWS V13.01,2013-03-13 23:57:00,
2013-03-13 17:02:00,86.4,37.9,29.89,WNW,299,1.0,5.0,18,0.00,,CLR,0.00,VWS V13.01,2013-03-14 00:02:00,
2013-03-13 17:07:00,86.3,37.8,29.89,WNW,296,1.0,5.0,18,0.00,,CLR,0.00,VWS V13.01,2013-03-14 00:07:00,
2013-03-13 17:12:00,86.2,39.2,29.89,NW,315,1.0,3.0,19,0.00,,CLR,0.00,VWS V13.01,2013-03-14 00:12:00,
2013-03-13 17:17:00,86.2,41.7,29.89,WNW,295,0.0,3.0,21,0.00,,CLR,0.00,VWS V13.01,2013-03-14 00:17:00,
2013-03-13 17:22:00,85.8,44.9,29.89,West,277,2.0,5.0,24,0.00,,CLR,0.00,VWS V13.01,2013-03-14 00:22:00,
2013-03-13 17:27:00,85.2,47.5,29.89,WNW,290,4.0,6.0,27,0.00,,CLR,0.00,VWS V13.01,2013-03-14 00:27:00,
2013-03-13 17:32:00,84.0,47.4,29.89,SSW,195,3.0,8.0,28,0.00,,CLR,0.00,VWS V13.01,2013-03-14 00:32:00,
2013-03-13 17:37:00,83.1,46.7,29.89,WSW,250,3.0,8.0,28,0.00,,CLR,0.00,VWS V13.01,2013-03-14 00:37:00,
2013-03-13 17:42:00,82.5,44.2,29.90,WNW,286,3.0,5.0,26,0.00,,CLR,0.00,VWS V13.01,2013-03-14 00:42:00,
2013-03-13 17:47:00,81.9,44.7,29.90,West,267,1.0,5.0,27,0.00,,CLR,0.00,VWS V13.01,2013-03-14 00:47:00,
2013-03-13 17:52:00,81.4,45.2,29.90,WNW,303,0.0,5.0,28,0.00,,CLR,0.00,VWS V13.01,2013-03-14 00:52:00,
2013-03-13 17:57:00,81.0,43.9,29.90,WNW,301,1.0,5.0,27,0.00,,CLR,0.00,VWS V13.01,2013-03-14 00:57:00,
2013-03-13 18:02:00,80.8,44.7,29.90,West,271,0.0,5.0,28,0.00,,FEW010,0.00,VWS V13.01,2013-03-14 01:02:00,
2013-03-13 18:07:00,80.5,44.4,29.90,West,281,1.0,5.0,28,0.00,,FEW010,0.00,VWS V13.01,2013-03-14 01:07:00,
2013-03-13 18:12:00,80.0,44.0,29.90,WNW,288,0.0,1.0,28,0.00,,FEW010,0.00,VWS V13.01,2013-03-14 01:12:00,
2013-03-13 18:17:00,79.2,44.2,29.90,West,274,0.0,2.0,29,0.00,,FEW010,0.00,VWS V13.01,2013-03-14 01:17:00,
2013-03-13 18:22:00,78.4,44.4,29.90,West,275,1.0,3.0,30,0.00,,FEW010,0.00,VWS V13.01,2013-03-14 01:22:00,
2013-03-13 18:27:00,77.6,47.8,29.90,West,272,0.0,3.0,35,0.00,,FEW010,0.00,VWS V13.01,2013-03-14 01:27:00,
2013-03-13 18:32:00,76.9,51.4,29.90,WNW,292,1.0,3.0,41,0.00,,FEW010,0.00,VWS V13.01,2013-03-14 01:32:00,
2013-03-13 18:37:00,76.0,52.5,29.90,WNW,294,0.0,3.0,44,0.00,,FEW010,0.00,VWS V13.01,2013-03-14 01:37:00,
2013-03-13 18:42:00,75.2,53.0,29.90,WNW,294,1.0,2.0,46,0.00,,FEW010,0.00,VWS V13.01,2013-03-14 01:42:00,
2013-03-13 18:47:00,74.4,53.5,29.90,WNW,294,0.0,2.0,48,0.00,,FEW010,0.00,VWS V13.01,2013-03-14 01:47:00,
2013-03-13 18:52:00,73.8,53.5,29.90,WNW,294,0.0,2.0,49,0.00,,FEW010,0.00,VWS V13.01,2013-03-14 01:52:00,
2013-03-13 18:57:00,73.3,53.6,29.91,WNW,294,0.0,2.0,50,0.00,,FEW010,0.00,VWS V13.01,2013-03-14 01:57:00,
2013-03-13 19:02:00,72.6,53.5,29.90,WNW,294,0.0,2.0,51,0.00,,FEW010,0.00,VWS V13.01,2013-03-14 02:02:00,
2013-03-13 19:07:00,72.0,53.4,29.91,NE,49,0.0,2.0,52,0.00,,FEW010,0.00,VWS V13.01,2013-03-14 02:07:00,
2013-03-13 19:12:00,71.2,52.7,29.91,NE,49,0.0,2.0,52,0.00,,FEW010,0.00,VWS V13.01,2013-03-14 02:12:00,
2013-03-13 19:17:00,70.7,53.3,29.91,NE,49,0.0,2.0,54,0.00,,FEW010,0.00,VWS V13.01,2013-03-14 02:17:00,
2013-03-13 19:22:00,70.4,53.5,29.91,NE,49,0.0,2.0,55,0.00,,FEW010,0.00,VWS V13.01,2013-03-14 02:22:00,
2013-03-13 19:27:00,70.0,53.6,29.91,NE,49,0.0,2.0,56,0.00,,FEW010,0.00,VWS V13.01,2013-03-14 02:27:00,
2013-03-13 19:32:00,69.5,52.6,29.91,NE,49,0.0,2.0,55,0.00,,FEW010,0.00,VWS V13.01,2013-03-14 02:32:00,
2013-03-13 19:37:00,69.0,50.1,29.91,NE,49,0.0,2.0,51,0.00,,FEW010,0.00,VWS V13.01,2013-03-14 02:37:00,
2013-03-13 19:42:00,68.7,48.2,29.92,NE,49,0.0,0.0,48,0.00,,FEW010,0.00,VWS V13.01,2013-03-14 02:42:00,
2013-03-13 19:47:00,68.5,48.6,29.92,NE,49,0.0,0.0,49,0.00,,FEW010,0.00,VWS V13.01,2013-03-14 02:47:00,
2013-03-13 19:52:00,68.2,47.8,29.92,NE,49,0.0,0.0,48,0.00,,FEW010,0.00,VWS V13.01,2013-03-14 02:52:00,
2013-03-13 19:57:00,68.0,46.5,29.92,NE,49,0.0,1.0,46,0.00,,FEW010,0.00,VWS V13.01,2013-03-14 02:57:00,
2013-03-13 20:02:00,67.7,47.3,29.92,NE,49,0.0,1.0,48,0.00,,FEW010,0.00,VWS V13.01,2013-03-14 03:02:00,
2013-03-13 20:07:00,67.2,46.3,29.93,NE,53,0.0,1.0,47,0.00,,FEW010,0.00,VWS V13.01,2013-03-14 03:07:00,
2013-03-13 20:12:00,67.0,46.1,29.93,NE,53,0.0,0.0,47,0.00,,FEW010,0.00,VWS V13.01,2013-03-14 03:12:00,
2013-03-13 20:17:00,67.0,48.3,29.93,NE,54,0.0,0.0,51,0.00,,FEW010,0.00,VWS V13.01,2013-03-14 03:17:00,
2013-03-13 20:28:00,66.5,48.3,29.93,NE,54,0.0,1.0,52,0.00,,FEW010,0.00,VWS V13.01,2013-03-14 03:28:00,
2013-03-13 20:33:00,66.0,46.3,29.93,ENE,69,0.0,1.0,49,0.00,,FEW010,0.00,VWS V13.01,2013-03-14 03:33:00,
2013-03-13 20:38:00,65.5,45.8,29.93,ENE,69,0.0,1.0,49,0.00,,FEW010,0.00,VWS V13.01,2013-03-14 03:38:00,
2013-03-13 20:43:00,65.3,46.7,29.94,ENE,69,1.0,1.0,51,0.00,,FEW010,0.00,VWS V13.01,2013-03-14 03:43:00,
2013-03-13 20:48:00,65.3,45.7,29.93,ENE,69,0.0,1.0,49,0.00,,FEW010,0.00,VWS V13.01,2013-03-14 03:48:00,
2013-03-13 20:53:00,65.3,45.7,29.93,ENE,63,0.0,1.0,49,0.00,,FEW010,0.00,VWS V13.01,2013-03-14 03:53:00,
2013-03-13 20:58:00,65.2,45.6,29.93,ENE,63,0.0,1.0,49,0.00,,FEW010,0.00,VWS V13.01,2013-03-14 03:58:00,
2013-03-13 21:03:00,65.2,45.6,29.93,ENE,66,0.0,1.0,49,0.00,,FEW010,0.00,VWS V13.01,2013-03-14 04:03:00,
2013-03-13 21:08:00,65.1,44.9,29.93,ENE,66,0.0,0.0,48,0.00,,FEW010,0.00,VWS V13.01,2013-03-14 04:08:00,
2013-03-13 21:13:00,64.9,44.8,29.93,ENE,66,0.0,1.0,48,0.00,,FEW010,0.00,VWS V13.01,2013-03-14 04:13:00,
2013-03-13 21:18:00,65.1,44.4,29.93,ENE,66,0.0,2.0,47,0.00,,FEW010,0.00,VWS V13.01,2013-03-14 04:18:00,
2013-03-13 21:23:00,65.2,44.5,29.93,ENE,66,0.0,2.0,47,0.00,,FEW010,0.00,VWS V13.01,2013-03-14 04:23:00,
2013-03-13 21:28:00,65.2,44.5,29.93,ENE,66,0.0,2.0,47,0.00,,FEW010,0.00,VWS V13.01,2013-03-14 04:28:00,
2013-03-13 21:33:00,65.2,43.9,29.93,ENE,66,0.0,2.0,46,0.00,,FEW010,0.00,VWS V13.01,2013-03-14 04:33:00,
2013-03-13 21:38:00,65.3,44.0,29.93,ENE,66,0.0,0.0,46,0.00,,FEW010,0.00,VWS V13.01,2013-03-14 04:38:00,
2013-03-13 21:43:00,65.5,43.0,29.94,East,80,0.0,2.0,44,0.00,,FEW010,0.00,VWS V13.01,2013-03-14 04:43:00,
2013-03-13 21:48:00,65.4,42.3,29.93,East,80,2.0,4.0,43,0.00,,FEW010,0.00,VWS V13.01,2013-03-14 04:48:00,
2013-03-13 21:53:00,65.4,42.3,29.93,ENE,61,0.0,4.0,43,0.00,,FEW010,0.00,VWS V13.01,2013-03-14 04:53:00,
2013-03-13 21:58:00,65.3,41.6,29.93,ENE,69,1.0,4.0,42,0.00,,FEW010,0.00,VWS V13.01,2013-03-14 04:58:00,
2013-03-13 22:03:00,65.1,40.8,29.93,ENE,73,0.0,4.0,41,0.00,,,0.00,VWS V13.01,2013-03-14 05:03:00,
2013-03-13 22:08:00,65.2,40.9,29.94,East,96,1.0,1.0,41,0.00,,,0.00,VWS V13.01,2013-03-14 05:08:00,
2013-03-13 22:13:00,65.2,40.3,29.94,NE,47,0.0,3.0,40,0.00,,,0.00,VWS V13.01,2013-03-14 05:13:00,
2013-03-13 22:18:00,65.4,39.8,29.94,NE,47,0.0,3.0,39,0.00,,,0.00,VWS V13.01,2013-03-14 05:18:00,
2013-03-13 22:23:00,65.6,40.7,29.94,NE,47,0.0,3.0,40,0.00,,,0.00,VWS V13.01,2013-03-14 05:23:00,
2013-03-13 22:28:00,65.5,41.2,29.94,NE,47,1.0,3.0,41,0.00,,,0.00,VWS V13.01,2013-03-14 05:28:00,
2013-03-13 22:33:00,65.4,39.8,29.94,ENE,59,0.0,3.0,39,0.00,,,0.00,VWS V13.01,2013-03-14 05:33:00,
2013-03-13 22:38:00,65.4,39.8,29.94,ENE,71,0.0,0.0,39,0.00,,,0.00,VWS V13.01,2013-03-14 05:38:00,
2013-03-13 22:43:00,65.5,39.2,29.94,East,97,0.0,1.0,38,0.00,,,0.00,VWS V13.01,2013-03-14 05:43:00,
2013-03-13 22:48:00,65.6,39.3,29.94,ESE,103,0.0,1.0,38,0.00,,,0.00,VWS V13.01,2013-03-14 05:48:00,
2013-03-13 22:53:00,65.7,39.4,29.94,ESE,105,0.0,1.0,38,0.00,,,0.00,VWS V13.01,2013-03-14 05:53:00,
2013-03-13 22:58:00,65.9,38.9,29.94,ESE,105,0.0,1.0,37,0.00,,,0.00,VWS V13.01,2013-03-14 05:58:00,
2013-03-13 23:03:00,66.0,39.7,29.94,ESE,105,0.0,1.0,38,0.00,,,0.00,VWS V13.01,2013-03-14 06:03:00,
2013-03-13 23:08:00,65.7,40.1,29.94,ESE,105,0.0,0.0,39,0.00,,,0.00,VWS V13.01,2013-03-14 06:08:00,
2013-03-13 23:13:00,65.4,40.5,29.94,ESE,105,0.0,0.0,40,0.00,,,0.00,VWS V13.01,2013-03-14 06:13:00,
2013-03-13 23:18:00,64.9,41.3,29.94,ESE,105,0.0,0.0,42,0.00,,,0.00,VWS V13.01,2013-03-14 06:18:00,
2013-03-13 23:23:00,64.5,43.3,29.94,NNE,13,0.0,1.0,46,0.00,,,0.00,VWS V13.01,2013-03-14 06:23:00,
2013-03-13 23:28:00,63.8,44.8,29.94,NNE,13,0.0,1.0,50,0.00,,,0.00,VWS V13.01,2013-03-14 06:28:00,
2013-03-13 23:33:00,63.2,45.3,29.94,NNE,13,0.0,1.0,52,0.00,,,0.00,VWS V13.01,2013-03-14 06:33:00,
2013-03-13 23:38:00,62.7,45.3,29.94,NNE,13,0.0,0.0,53,0.00,,,0.00,VWS V13.01,2013-03-14 06:38:00,
2013-03-13 23:43:00,62.0,46.6,29.94,NNE,13,0.0,0.0,57,0.00,,,0.00,VWS V13.01,2013-03-14 06:43:00,
2013-03-13 23:48:00,61.4,46.5,29.94,NNE,13,0.0,0.0,58,0.00,,,0.00,VWS V13.01,2013-03-14 06:48:00,
2013-03-13 23:53:00,60.5,45.2,29.94,NNE,13,0.0,1.0,57,0.00,,,0.00,VWS V13.01,2013-03-14 06:53:00,
2013-03-13 23:58:00,60.1,45.3,29.94,NNE,13,0.0,1.0,58,0.00,,,0.00,VWS V13.01,2013-03-14 06:58:00,